STARLINK-34069, 64920

Orbit data source: Space-Track

STARLINK-34069, 64920 is a payload satellite owned by SpaceX/Seattle (US) in LEO that was launched on Sat, 26 Jul 2025 UTC via an FALCON 9 launch vehicle from the Air Force Eastern Test Range (AFETR). Payload-class satellites include a variety of spacecraft equipped with specific instruments for various scientific and technological missions. These include communications satellites like Starlink; space stations such as the ISS; scientific satellites like the Hubble; Earth observation satellites from companies like Planet Labs, Umbra, and HawkEye 360; GPS; miniature CubeSats for education and research; and military/defense satellites.

Loading next visibility...
Identifier
64920, 2025-157S
Orbit
LEO
Country
Flag of USUS
Related business
Manufacturer
SpaceX/Seattle
Mission
Operational Commercial Communications
Bus & Motor
STARLINK V2MO, Unknown motor
Mass
575 kg wet, ~530 kg dry
Launch date (UTC)
2025-07-26 (10 months ago)
Launch vehicle
FALCON 9
Launch site
Air Force Eastern Test Range (AFETR)
Object type
Payload
Rocket body
Debris
Shape & HBR
Box + 2 Pan, 17.7 m
Radar Cross Section
36.964 m², Large (>1 m²)

Expand to show TLE details & history
Last TLE update: 7 hours ago

TLE from 7 hours ago
0 STARLINK-34069
1 64920U 25157S   26145.58547180  .00023457  00000-0  80175-3 0  9992
2 64920  53.1587 348.7176 0001276 116.5385 243.5747 15.30194028 47896
Epoch: 2026-05-25T14:03Z
TLE epoch observation values (Epoch: 2026-05-25T14:03:04.763Z)
Latitude
Longitude
-105.22339°
Altitude
476.522 km
Speed
7.628 km/s
True Right ascension
23h 14m 52s
True Declination
0° 00' 00"
Sunlit
Object was in daylight at epoch
Visualization orbit readout
Latitude
Unknown
Longitude
Unknown
Altitude
Unknown
Speed
Unknown
Apparent Right ascension
Unknown
Apparent Declination
Unknown
Sunlit
N/A
Visualization observer readout
Local Sidereal Time
06:09:31
Azimuth
Unknown
Elevation
Unknown
Doppler factor
Unknown
Orbital elements
Apogee altitude
476.364 km
Perigee altitude
474.615 km
Semi-major axis
6,853.627 km
Eccentricity
0.00013
Inclination
53.1587°
RAAN
348.7176°
Arg. of periapsis
116.5385°
True anomaly
243.56161°
Mean anomaly
243.5747°
Eccentric anomaly
243.56815°
Mean motion
3.82527 °/min
Orbital period
94.11 mins
BSTAR
0.00080175
Loading maneuver chart data...
Computing Atmospheric mass density...
Loading historical data...
Loading historical data...
Loading historical data...
Loading historical data...
Loading historical data...
Loading historical data...
Loading historical data...

Documentation

Showing up to 5 results
|